Torna al catalogo

STARLINK-2166

AttivoComunicazioniVLEO
NORAD 48558·PAYLOAD·🇺🇸 United States

Lanciato May 15, 2021 da Cape Canaveral Space Force Station

Loading…

Prossimi Passaggi (prossime 24 ore)

TLE

AggiornatoSource: CelesTrak SupGP

Epoca: Sep 14, 2026, 20:25 UTC

1 48558C 21041F   26257.85118056 -.00033918  00000+0 -10904-2 0  2572
2 48558  53.1577 326.5260 0001077  90.2648 132.6700 15.31728465    10

Traccia STARLINK-2166 in tempo reale con AllMySat

Download on the App Store